Location: Chilton Park
(37.7711°N, 100.0276°W)
Time: 15:02:18
(UTC+00:00)

Cosmos 1805 Rocket - Pass Details

Date: 08 December 2021
Orbit: 606 x 629 km, 82.5° (Epoch: 19 January)

Event Time Altitude Azimuth Distance (km) Brightness Sun altitude
Rises 12:35:35 0° 187° (S) 2,880 7.1 -13.1°
Reaches altitude 10° 12:37:48 10° 188° (S) 1,975 6.3 -12.7°
Maximum altitude 12:42:11 84° 277° (W) 624 3.5 -11.8°
Drops below altitude 10° 12:46:34 10° 6° (N) 1,975 6.0 -11.0°
Sets 12:48:47 0° 7° (N) 2,881 6.8 -10.6°
